www.pogodaiklimat.ru

Погода и климат >> Архив погоды >> Россия >> Эвенкия >> Тура


ПОГОДА в Туре

АРХИВ ПОГОДЫ в Туре

Время (UTC), дата Ветер
(напр.,м/с)
 
Видим.   Явления Облачность Т
(С)
Тd
(С)
f
(%)
Тe
(С)
Тes
(С)
Комфортность P
(гПа)
Po
(гПа)
Тmin
(С)
Tmax
(С)
R
(мм)
R24
(мм)
S
(см)
06 12.08 ЮЗ 1 20 км {туман} 8/5 600 м
[Cb cap Cs]
+21.4 +9.8 48 +23 +28 комфорт 1007.2 985.3
09 12.08 СВ 1 20 км 9/5 600 м
[Cb cap Ac trans Cs]
+22.3 +10.5 47 +24 +26 комфорт 1006.9 985.1
12 12.08 С 2 20 км 9/8 600 м
[Cb cap Ci sp]
+20.6 +15.2 71 +24 +24 комфорт 1006.7 984.8 +23.3
15 12.08 штиль 0 н/о 8/6 600 м
[Cb cap Ci fib]
+15.8 +13.9 88 +16 +16 1005.9 983.6
18 12.08 штиль 0 н/о 9/9 600 м
[Cb cap]
+14.8 +13.2 90 +14 +14 1005.3 982.9
21 12.08 С 2 20 км 4/3 1000 м
[Sc Ci fib]
+14.2 +12.0 87 +14 +14 1004.7 982.4
00 13.08 ЮВ 2 20 км 8/0
[Ci sp]
+14.8 +12.6 87 +14 +16 1004.9 982.5 +13.2
03 13.08 ЮЗ 1 20 км 10/0
[Ac trans Ci fib]
+23.0 +15.5 63 +27 +33 душно 1004.6 982.9
06 13.08 З 3 20 км 10/3 1000 м
[Cu Sc Ac trans Ci fib]
+26.0 +15.7 53 +29 +32 душно 1003.5 982.1
09 13.08 З 2 20 км 10/10 600 м
[Cb cap]
+23.2 +14.4 58 +27 +27 душно 1005.9 984.2
12 13.08 С 2 20 км {ливн. осадки} 10/8 600 м
[Cb cap Ac trans Ci fib]
+18.3 +15.4 83 +19 +19 1008.0 985.9 +26.4 0.4
15 13.08 С 1 н/о 10/10 600 м
[Cb cap]
+17.5 +15.1 86 +19 +19 1008.5 986.3
18 13.08 З 1 н/о 10/10 600 м
[Cb cap]
+15.9 +14.5 91 +17 +17 1009.4 987.1
21 13.08 СЗ 2 20 км 9/8 600 м
[Cb cap Ci sp]
+14.6 +12.8 89 +14 +14 1009.6 987.2
00 14.08 З 2 20 км 10/10 600 м
[Cb cap]
+14.4 +11.2 81 +14 +14 1009.1 986.7 +14.4
03 14.08 СЗ 2 10 км слабый ливневой дождь 10/10 600 м
[Cb cap]
+12.4 +11.5 94 +11 +11 1010.4 987.7 +12.4
06 14.08 СЗ 1
{10}
20 км слабый ливневой дождь 10/10 600 м
[Cb cap]
+12.5 +11.2 92 +12 +12 1008.9 986.3
09 14.08 СЗ 2 20 км слабый ливневой дождь 10/10 600 м
[Cb cap]
+12.6 +10.9 89 +12 +12 1009.5 986.9
12 14.08 СЗ 3 20 км слабый ливневой дождь 10/10 600 м
[Cb cap]
+12.2 +9.9 86 +11 +11 1011.1 988.4 +12.6 14
15 14.08 З 2 н/о слабый ливневой дождь 10/10 600 м
[Cb cap]
+10.8 +9.2 90 +9 +9 1012.6 989.7
18 14.08 СЗ 2 н/о слабый ливневой дождь 10/10 600 м
[Cb cap]
+10.0 +8.6 91 +8 +8 1014.3 991.4
21 14.08 СЗ 1 20 км {ливн. осадки} 10/10 600 м
[Cb cap]
+9.8 +8.4 91 +9 +9 1015.3 992.4
00 15.08 З 3 20 км {ливн. осадки} 10/10 600 м
[Cb cap]
+8.4 +7.1 92 +6 +6 1017.3 994.2 +8.4 0.4
03 15.08 ЮЗ 2 20 км 9/9 600 м
[Cb cap]
+11.8 +7.2 73 +11 +12 1017.4 994.5
06 15.08 З 2 20 км 8/8 600 м
[Cb cap]
+13.4 +6.3 62 +13 +15 1017.5 994.8
09 15.08 З 3 20 км 6/6 600 м
[Cb cap]
+14.2 +5.6 56 +13 +15 1017.7 995.0
12 15.08 ЮЗ 3 20 км 6/3 600 м
[Cb cap Ac trans]
+14.8 +3.1 45 +14 +14 1018.1 995.4 +15.9
15 15.08 С 1 н/о 8/8 1000 м
[Sc]
+7.8 +5.3 84 +7 +7 1019.8 996.6
18 15.08 В 1 н/о 10/10 600 м
[Cb cap]
+8.0 +6.7 91 +7 +7 1020.3 997.1
21 15.08 В 2 20 км 10/10 600 м
[Cb cap]
+6.8 +5.2 90 +4 +4 1020.6 997.3
00 16.08 ЮВ 2 20 км {ливн. осадки} 10/10 600 м
[Cb cap]
+7.2 +5.4 88 +5 +5 1020.9 997.5 +5.9 0.0
03 16.08 Ю 1 20 км 9/9 600 м
[Cb cap]
+10.0 +6.8 80 +10 +10 1020.1 997.0
06 16.08 З 2 20 км 8/8 600 м
[Cb cap Ci fib]
+14.3 +6.4 59 +14 +16 1019.0 996.3
09 16.08 ЮВ 3 20 км 6/6 600 м
[Cb cap]
+17.1 +4.2 42 +17 +18 1017.5 995.0
12 16.08 Ю 2 20 км 4/4 1000 м
[Cu Sc]
+15.5 +3.8 46 +16 +16 1017.4 994.7 +17.4
15 16.08 Ю 1 н/о 3/3 1000 м
[Cu hum]
+10.0 +6.4 78 +10 +10 1017.8 994.7
18 16.08 штиль 0 н/о 3/3 1000 м
[Cu hum]
+4.6 +3.6 93 +3 +3 1018.1 994.5
21 16.08 ЮВ 1 200 м туман ?/? +3.2 +3.0 99 +1 +1 1017.9 994.3
00 17.08 ЮВ 2 10 км дымка {туман} 8/5 600 м
[Cb cap Ac trans]
+3.6 +2.6 93 +1 +1 1017.9 994.3 +2.6
03 17.08 ЮВ 1 20 км 10/10 600 м
[Cb cap]
+7.6 +5.1 84 +7 +7 1016.3 993.1
06 17.08 Ю 1 20 км 10/8 1000 м
[Sc Ac trans]
+14.6 +8.7 68 +15 +16 1014.2 991.7
09 17.08 З 1 20 км 10/10 600 м
[Cb cap]
+17.0 +7.7 54 +18 +18 1013.0 990.6
12 17.08 З 1 20 км 10/10 600 м
[Cb cap]
+16.2 +8.8 62 +17 +17 1012.8 990.3 +17.2
15 17.08 штиль 0 н/о 10/10 600 м
[Cb cap]
+14.5 +9.7 73 +14 +14 1012.4 989.9
18 17.08 СЗ 1 н/о 10/10 600 м
[Cb cap]
+13.0 +10.5 85 +13 +13 1012.6 989.9
21 17.08 СЗ 1 20 км 10/10 600 м
[Cb cap]
+12.2 +10.7 91 +12 +12 1012.6 989.9
00 18.08 З 1 20 км 10/8 600 м
[Cb cap Ac trans]
+12.1 +10.8 92 +12 +12 1012.5 989.8 +11.7
03 18.08 Ю 1 20 км 10/8 1000 м
[Sc Cs]
+16.2 +12.2 77 +17 +18 1012.0 989.6
06 18.08 ЮЗ 2 20 км 10/10 600 м
[Cb cap]
+19.3 +12.8 66 +21 +21 комфорт 1011.2 989.0
09 18.08 З 2 20 км 10/10 600 м
[Cb cap]
+18.2 +12.3 68 +19 +19 1011.8 989.6
12 18.08 С 2 20 км 10/10 600 м
[Cb cap]
+15.9 +11.3 74 +16 +16 1013.1 990.6 +19.7
15 18.08 СЗ 1 н/о слабый ливневой дождь 10/10 600 м
[Cb cap]
+13.9 +12.2 89 +14 +14 1014.0 991.4
18 18.08 СЗ 1 н/о {ливн. осадки} 10/10 600 м
[Cb cap]
+12.4 +11.3 93 +12 +12 1014.7 992.0
21 18.08 СЗ 1 20 км 10/10 600 м
[Cb cap]
+10.5 +9.9 96 +10 +10 1015.5 992.5
00 19.08 З 2 200 м туман 10/0
[Ci fib]
+9.2 +9.0 99 +7 +8 1016.5 993.4 +8.9 0.0

 

Местоположение метеостанции Тура (Эвенкия, Россия): широта 64.33 долгота 100.40 высота над уровнем моря 624 м.

В архиве по умолчанию представлена погода в Туре за последнюю неделю. Архивные данные за месяц целиком и за предыдущие месяцы, начиная с января 2011 года, Вы можете получить, выбрав интересующий диапазон дат из раскрывающегося списка и нажав кнопку "Ввод!".

Внимание! Время в таблицах - всемирное. Для получения местного времени необходимо прибавить поправку, которая в Туре равна 7 ч.

Смотрите также архив погоды в соседних городах и на ближайших метеорологических станциях:

Погода в Тембенчи (Эвенкия, Россия) (99 км)
Погода в Кербо (Эвенкия, Россия) (182 км)
Погода в Кислокане (Эвенкия, Россия) (190 км)
Погода в Стрелке-Чуне (Эвенкия, Россия) (311 км)
Погода в Тутончанах (Эвенкия, Россия) (320 км)
Погода в Муторае (Эвенкия, Россия) (334 км)
Погода в Байките (Эвенкия, Россия) (359 км)
Погода в Агате (Эвенкия, Россия) (426 км)
Погода в Усть-Камо (Эвенкия, Россия) (428 км)
Погода в Ванаваре (Эвенкия, Россия) (456 км)

Пояснения к столбцам:

Ветер - указаны скорость ветра в м/с - средняя за 10 мин, порывы в срок и между сроками (в фигурных скобках) и направление, откуда дует ветер: С - северный, СВ - северо-восточный, В - восточный, ЮВ - юго-восточный, Ю - южный, ЮЗ - юго-западный, З - западный, СЗ - северо-западный.
Видимость - горизонтальная дальность видимости в метрах или километрах. При видимости от 1 до 10 км при отсутствии осадков обычно наблюдается дымка, при ухудшении видимости до 1 км и менее - туман. В сухую погоду видимость может ухудшаться дымом, пылью или мглою.
Явления - указаны атмосферные явления, наблюдавшиеся в срок или в последний час перед сроком; фигурными скобками обозначены явления, наблюдавшиеся между сроками (за 1-3 часа до срока); квадратными скобками обозначены град или гололедные отложения с указанием их диаметра в мм.
Облачность - указаны через наклонную черту общая и нижняя облачность в баллах и высота нижней границы облаков в метрах; квадратными скобками обозначены формы облаков: Ci - перистые, Cs - перисто-слоистые, Cc - перисто-кучевые, Ac - высококучевые, As - высокослоистые, Sc - слоисто-кучевые, Ns - слоисто-дождевые, Cu - кучевые, Cb - кучево-дождевые. Подробнее классификацию облаков см. в Атласе облаков (PDF).
T - Температура воздуха - температура, измеренная на высоте 2 м над землей.
Td - Температура точки росы - температура, при понижении до которой содержащийся в воздухе водяной пар достигнет насыщения.
f - Относительная влажность воздуха - влажноcть воздуха, измеренная на высоте 2 м над землей.
Te - Эффективная температура - температура, которую ощущает одетый по сезону человек в тени. Характеристика душности погоды. При расчете учитывается влияние влажности воздуха и скорости ветра на теплоощущения человека.
Tes - Эффективная температура на солнце - температура, которую ощущает человек, с поправкой на солнечный нагрев. Характеристика знойности погоды. Зависит от высоты солнца над горизонтом, облачности и скорости ветра. Ночью, в пасмурную погоду, а также при ветре 12 м/с и более поправка равна нулю.
P - Атмосферное давление - приведенное к уровню моря атмосферное давление.
Po - Атмосферное давление - измеренное на уровне метеостанции атмосферное давление.
Tmin - Минимальная температура - минимум температуры воздуха на высоте 2 м над землей.
Tmax - Максимальная температура - максимум температуры воздуха на высоте 2 м над землей.
R - Количество осадков - Количество выпавших осадков за период времени, мм. При наведении курсора мыши на число - период времени, за который выпало указанное количество осадков.
R24 - Количество осадков - Количество выпавших осадков за 24 часа, мм.
S - Снежный покров - Высота снежного покрова, см. При наведении курсора мыши на число - состояние снежного покрова и степень покрытия местности в баллах.